FW8992 Weather Reports


time (UTC)temp
C
wind
direction
speed
KPH
gust
KPH
rain 1hr
cm
rain 24hr
cm
rain mn
cm
humidity
%
barometer
mb
20260510021543 25 121 11.3 20.9 0.00 0.00 0.00 58 1008.9
20260510020047 25 157 9.7 19.3 0.00 0.00 0.00 56 1008.7
20260510014548 26 140 9.7 20.9 0.00 0.00 0.00 54 1008.5
20260510013042 26 88 9.7 22.5 0.00 0.00 0.00 53 1008.4
20260510011544 27 123 8.0 17.7 0.00 0.00 0.00 51 1008.3
20260510010042 27 153 8.0 19.3 0.00 0.00 0.00 48 1008.3
20260510004540 28 118 8.0 19.3 0.00 0.00 0.00 44 1008.3
20260510003045 30 123 6.4 16.1 0.00 0.00 0.00 40 1008.2
20260510001545 30 153 11.3 17.7 0.00 0.00 0.00 38 1008.1
20260510000100 30 149 6.4 17.7 0.00 0.00 0.00 37 1008.2
20260509234554 31 156 8.0 17.7 0.00 0.00 0.00 36 1008.3
20260509233045 31 119 9.7 19.3 0.00 0.00 0.00 36 1008.3
20260509231545 31 149 6.4 19.3 0.00 0.00 0.00 35 1008.5
20260509230046 31 189 9.7 20.9 0.00 0.00 0.00 34 1008.5
20260509224544 31 148 6.4 24.1 0.00 0.00 0.00 36 1008.6
20260509223101 31 132 8.0 16.1 0.00 0.00 0.00 34 1008.5
20260509221545 31 188 6.4 20.9 0.00 0.00 0.00 34 1008.5
20260509220042 31 150 4.8 24.1 0.00 0.00 0.00 35 1008.6
20260509214541 31 153 11.3 17.7 0.00 0.00 0.00 35 1008.6
20260509213046 31 116 9.7 19.3 0.00 0.00 0.00 37 1008.8
20260509211542 31 197 9.7 17.7 0.00 0.00 0.00 38 1009.1
20260509210049 31 210 11.3 20.9 0.00 0.00 0.00 37 1009.2
20260509204549 31 142 11.3 19.3 0.00 0.00 0.00 39 1009.5
20260509203039 31 146 8.0 27.4 0.00 0.00 0.00 40 1009.7
20260509201548 31 126 8.0 16.1 0.00 0.00 0.00 42 1010.0
20260509200059 31 145 8.0 20.9 0.00 0.00 0.00 41 1010.1
20260509194544 30 179 8.0 17.7 0.00 0.00 0.00 41 1010.3
20260509193043 30 153 8.0 19.3 0.00 0.00 0.00 45 1010.5
20260509191542 30 124 8.0 17.7 0.00 0.00 0.00 40 1010.7
20260509190041 30 161 9.7 20.9 0.00 0.00 0.00 42 1010.8
20260509184556 30 197 8.0 20.9 0.00 0.00 0.00 41 1011.0
20260509183043 30 152 4.8 14.5 0.00 0.00 0.00 43 1010.9
20260509181547 29 198 6.4 16.1 0.00 0.00 0.00 45 1011.2
20260509180039 29 192 6.4 12.9 0.00 0.00 0.00 49 1011.5
20260509174543 28 177 8.0 14.5 0.00 0.00 0.00 50 1011.7
20260509173052 28 148 6.4 14.5 0.00 0.00 0.00 53 1012.0
20260509171543 28 199 1.6 17.7 0.00 0.00 0.00 51 1012.1
20260509170042 27 175 1.6 14.5 0.00 0.00 0.00 53 1012.1
20260509164540 27 205 8.0 17.7 0.00 0.00 0.00 56 1012.2
20260509163044 27 203 3.2 16.1 0.00 0.00 0.00 59 1012.2
20260509161544 26 185 3.2 17.7 0.00 0.00 0.00 59 1012.2
20260509160046 26 187 4.8 14.5 0.00 0.00 0.00 63 1012.3
20260509154543 26 232 8.0 14.5 0.00 0.00 0.00 64 1012.3
20260509153045 25 165 4.8 14.5 0.00 0.00 0.00 66 1012.3
20260509151544 25 263 4.8 17.7 0.00 0.00 0.00 68 1012.2
20260509150046 24 298 4.8 20.9 0.00 0.00 0.00 71 1012.1
20260509144601 23 213 11.3 22.5 0.00 0.00 0.00 73 1012.1
20260509143044 22 183 11.3 20.9 0.00 0.00 0.00 76 1012.1
20260509141542 21 257 11.3 22.5 0.00 0.00 0.00 79 1012.3
20260509140040 20 211 11.3 24.1 0.00 0.00 0.00 83 1012.2
20260509134601 20 217 8.0 17.7 0.00 0.00 0.00 84 1012.2
20260509133047 20 245 11.3 24.1 0.00 0.00 0.00 84 1012.0
20260509131542 19 236 6.4 22.5 0.00 0.00 0.00 86 1012.0
20260509130054 18 212 11.3 19.3 0.00 0.00 0.00 88 1011.8
20260509124543 18 221 11.3 22.5 0.00 0.00 0.00 89 1011.6
20260509123048 17 178 11.3 19.3 0.00 0.00 0.00 89 1011.4
20260509121601 17 213 11.3 22.5 0.00 0.00 0.00 89 1011.4
20260509120043 17 202 12.9 20.9 0.00 0.00 0.00 88 1011.2
20260509114542 17 224 12.9 22.5 0.00 0.00 0.00 87 1011.0
20260509113040 16 199 11.3 20.9 0.00 0.00 0.00 86 1010.7
20260509111551 16 200 11.3 17.7 0.00 0.00 0.00 86 1010.5
20260509110046 16 207 9.7 22.5 0.00 0.00 0.00 86 1010.5
20260509104547 16 227 8.0 19.3 0.00 0.00 0.00 86 1010.5
20260509103054 16 218 9.7 17.7 0.00 0.00 0.00 87 1010.9
20260509101617 16 188 6.4 17.7 0.00 0.00 0.00 86 1010.9
20260509100044 16 184 8.0 17.7 0.00 0.00 0.00 85 1011.0
20260509094541 17 205 8.0 17.7 0.00 0.00 0.00 82 1011.1
20260509093043 17 170 9.7 19.3 0.00 0.00 0.00 80 1011.1
20260509091544 17 194 8.0 16.1 0.00 0.00 0.00 77 1011.0
20260509090043 17 210 4.8 14.5 0.00 0.00 0.00 76 1011.1
20260509084544 17 158 6.4 14.5 0.00 0.00 0.00 76 1011.0
20260509083044 18 197 8.0 12.9 0.00 0.00 0.00 75 1011.2
20260509081545 18 118 6.4 19.3 0.00 0.00 0.00 75 1011.5
20260509080042 18 109 8.0 16.1 0.00 0.00 0.00 75 1011.8
20260509074546 18 107 3.2 9.7 0.00 0.00 0.00 75 1011.7
20260509073054 18 68 6.4 19.3 0.00 0.00 0.00 75 1012.1
20260509071553 18 86 6.4 22.5 0.00 0.00 0.00 78 1012.7
20260509070047 18 66 8.0 30.6 0.00 0.00 0.00 81 1012.9
20260509064557 19 29 11.3 27.4 0.00 0.00 0.00 90 1013.1
20260509063045 19 34 4.8 17.7 0.00 0.00 0.00 91 1012.7
20260509061540 18 360 3.2 11.3 0.00 0.00 0.00 91 1012.1
20260509060040 18 159 3.2 12.9 0.00 0.00 0.00 90 1010.9
20260509054545 19 194 4.8 14.5 0.00 0.00 0.00 90 1010.3
20260509053048 19 171 6.4 17.7 0.00 0.00 0.00 90 1010.1
20260509051542 19 175 9.7 22.5 0.00 0.00 0.00 89 1010.1
20260509050041 19 146 12.9 27.4 0.00 0.00 0.00 89 1010.1
20260509044540 20 141 11.3 24.1 0.00 0.00 0.00 88 1010.3
20260509043048 20 165 9.7 22.5 0.00 0.00 0.00 87 1010.2
20260509041610 20 153 9.7 24.1 0.00 0.00 0.00 86 1010.0
20260509040045 20 175 11.3 27.4 0.00 0.00 0.00 85 1010.0
20260509034543 20 143 11.3 24.1 0.00 0.00 0.00 85 1009.8
20260509033047 20 179 11.3 24.1 0.00 0.00 0.00 84 1009.5
20260509031552 21 148 9.7 24.1 0.00 0.00 0.00 83 1009.5
20260509030046 21 194 11.3 20.9 0.00 0.00 0.00 82 1009.3
20260509024543 21 167 6.4 19.3 0.00 0.00 0.00 81 1009.2
20260509023100 21 155 6.4 20.9 0.00 0.00 0.00 79 1009.3